Regional Weather Roundup
Issued by NWS Little Rock, AR

Home | Current Version | Previous Version | Graphics & Text | Print | Product List | Glossary On
Versions: 1 2 3 4 5 6 7 8 9 10 11 12 13 14 15 16 17 18 19 20 21 22 23 24 25 26 27 28 29 30 31 32 33 34 35 36 37 38 39 40 41 42 43 44 45 46 47 48 49 50
000
ASUS44 KLZK 311105
RWRLZK

WEATHER ROUNDUP FOR ARKANSAS
NATIONAL WEATHER SERVICE LITTLE ROCK AR
600 AM CDT MON AUG 31 2015

NOTE: "FAIR" INDICATES FEW OR NO CLOUDS BELOW 12,000 FEET WITH NO
SIGNIFICANT WEATHER AND/OR OBSTRUCTIONS TO VISIBILITY.

ARZ001-003-010-029-311200-
NORTHWEST ARKANSAS

CITY           SKY/WX    TMP DP  RH WIND       PRES   REMARKS
FAYETTEVILLE   MOCLDY    69  67  93 S5        30.03R
FORT SMITH     MOCLDY    72  68  87 NE6       30.01R
BENTONVILLE    CLEAR     70  63  78 S5        30.03R
ROGERS         CLEAR     70  67  90 SE6       30.04R
SILOAM SPGS    CLEAR     70  61  73 S7        30.01R
HIGHFILL       CLEAR     69  67  93 S5        30.02S
SPRINGDALE     CLEAR     70  66  88 CALM      30.05
$$

ARZ004-005-016-311200-
NORTH CENTRAL ARKANSAS

CITY           SKY/WX    TMP DP  RH WIND       PRES   REMARKS
BATESVILLE     CLEAR     70  68  94 E3        30.05R
FLIPPIN        CLOUDY    70  64  83 CALM      30.02R
MTN HOME       MOCLDY    69  67  93 CALM      30.04R
$$

ARZ040-041-311200-
WEST CENTRAL ARKANSAS

CITY           SKY/WX    TMP DP  RH WIND       PRES   REMARKS
MENA           CLEAR     72  68  88 SW5       30.04R
MOUNT IDA        N/A     67  65  93 CALM      30.01R FOG
$$

ARZ009-017-025-026-028-311200-
NORTHEAST ARKANSAS

CITY           SKY/WX    TMP DP  RH WIND       PRES   REMARKS
JONESBORO      MOCLDY    67  67 100 CALM      30.06R
NEWPORT        PTCLDY    69  69 100 E3        30.06R
WALNUT RIDGE   CLEAR     68  64  88 NE3       30.06R
BLYTHEVILLE    MOCLDY    70  68  93 S3        30.07R
$$

ARZ022-023-033-042-044-311200-
CENTRAL ARKANSAS

CITY           SKY/WX    TMP DP  RH WIND       PRES   REMARKS
LITTLE ROCK    PTCLDY    72  69  90 NE6       30.03R
N LITTLE ROCK    N/A     71  70  96 E5        30.03R
JACKSONVILLE   CLEAR     69  69  97 N2        30.02R
SEARCY         CLEAR     69  69 100 CALM      30.05R FOG
HOT SPRINGS    CLEAR     69  66  90 NW3       30.03R
RUSSELLVILLE   CLEAR     69  67  93 CALM      30.02R
$$

ARZ036-311200-
EAST ARKANSAS

CITY           SKY/WX    TMP DP  RH WIND       PRES   REMARKS
WEST MEMPHIS   CLEAR     69  68  96 S6        30.04R
$$

ARZ050-053-066-070-073-311200-
SOUTHWEST ARKANSAS

CITY           SKY/WX    TMP DP  RH WIND       PRES   REMARKS
ARKADELPHIA    FAIR      67  67 100 CALM      30.01R FOG
CAMDEN         CLEAR     68  66  94 S3        30.01R FOG
TEXARKANA      CLEAR     73  67  81 SW3       30.01R
EL DORADO      PTCLDY    68  66  93 CALM      30.02R
DE QUEEN       FOG       67  67 100 CALM      30.00R VSB 3/4
$$

ARZ056-057-069-311200-
SOUTHEAST ARKANSAS

CITY           SKY/WX    TMP DP  RH WIND       PRES   REMARKS
PINE BLUFF     CLEAR     69  68  96 CALM      30.01R FOG
STUTTGART      PTCLDY    72  66  83 SE7       30.02R
MONTICELLO     CLEAR     71  69  93 CALM      30.01R

$$




USA.gov is the U.S. government's official web portal to all federal, state and local government web resources and services.